• In Austria
  • List of Countries
  • For 7 days
  • Water Temperature
  • Satellite Maps
  • Weather Map
  • News
  • Weather Widgets
  • user-avatar
    Login

    Hourly Weather Varna

    Today, 12 December, Tuesday

    Time Temperature Precipitation Wind Pressure Humidity
    00:00 +5°C° 0 mm 5 mps 748 mmHg 81%
    01:00 +5°C° 0 mm 5 mps 748 mmHg 81%
    02:00 +5°C° 0 mm 4 mps 747 mmHg 85%
    03:00 +5°C° 0 mm 5 mps 747 mmHg 85%
    04:00 +3°C° 0 mm 5 mps 747 mmHg 84%
    05:00 +3°C° 0 mm 5 mps 747 mmHg 83%
    06:00 +3°C° 0 mm 5 mps 747 mmHg 82%
    07:00 +3°C° 0 mm 5 mps 747 mmHg 80%
    08:00 +4°C° 0 mm 4 mps 747 mmHg 76%
    09:00 +6°C° 0 mm 4 mps 747 mmHg 69%
    10:00 +7°C° 0 mm 4 mps 747 mmHg 62%
    11:00 +10°C° 0 mm 4 mps 748 mmHg 54%
    12:00 +11°C° 0 mm 4 mps 748 mmHg 51%
    13:00 +12°C° 0 mm 4 mps 748 mmHg 48%
    14:00 +13°C° 0 mm 4 mps 747 mmHg 44%
    15:00 +12°C° 0 mm 4 mps 747 mmHg 48%
    16:00 +11°C° 0 mm 4 mps 747 mmHg 52%
    17:00 +10°C° 0 mm 4 mps 747 mmHg 56%
    18:00 +9°C° 0 mm 3 mps 747 mmHg 56%
    19:00 +9°C° 0 mm 3 mps 747 mmHg 56%
    20:00 +9°C° 0 mm 3 mps 747 mmHg 56%
    21:00 +9°C° 0 mm 3 mps 747 mmHg 57%
    22:00 +9°C° 0 mm 3 mps 747 mmHg 58%
    23:00 +8°C° 0 mm 3 mps 748 mmHg 59%

    Tomorrow, 13 December, Wednesday

    Time Temperature Precipitation Wind Pressure Humidity
    00:00 +8°C° 0 mm 3 mps 748 mmHg 60%
    01:00 +8°C° 0 mm 3 mps 748 mmHg 61%
    02:00 +8°C° 0 mm 3 mps 748 mmHg 62%
    03:00 +8°C° 0 mm 3 mps 748 mmHg 63%
    04:00 +8°C° 0 mm 3 mps 747 mmHg 63%
    05:00 +8°C° 0 mm 3 mps 747 mmHg 63%
    06:00 +8°C° 0 mm 3 mps 747 mmHg 64%
    07:00 +8°C° 0 mm 3 mps 747 mmHg 65%
    08:00 +8°C° 0 mm 3 mps 748 mmHg 66%
    09:00 +10°C° 0 mm 3 mps 748 mmHg 62%
    10:00 +11°C° 0 mm 3 mps 748 mmHg 58%
    11:00 +13°C° 0 mm 3 mps 748 mmHg 54%
    12:00 +13°C° 0 mm 3 mps 748 mmHg 52%
    13:00 +14°C° 0 mm 3 mps 747 mmHg 51%
    14:00 +16°C° 0 mm 3 mps 747 mmHg 50%
    15:00 +14°C° 0 mm 3 mps 747 mmHg 54%
    16:00 +12°C° 0 mm 3 mps 747 mmHg 59%
    17:00 +11°C° 0 mm 3 mps 747 mmHg 64%
    18:00 +12°C° 0 mm 2 mps 747 mmHg 65%
    19:00 +10°C° 0 mm 2 mps 746 mmHg 67%
    20:00 +10°C° 0 mm 2 mps 746 mmHg 68%
    21:00 +10°C° 0 mm 2 mps 746 mmHg 69%
    22:00 +10°C° 0 mm 2 mps 745 mmHg 70%
    23:00 +10°C° 0 mm 2 mps 745 mmHg 71%

    Day after tomorrow, 14 December, Thursday

    Time Temperature Precipitation Wind Pressure Humidity
    00:00 +10°C° 0 mm 2 mps 745 mmHg 72%
    01:00 +9°C° 0 mm 3 mps 745 mmHg 72%
    02:00 +9°C° 0 mm 3 mps 744 mmHg 73%
    03:00 +9°C° 0 mm 2 mps 744 mmHg 74%
    04:00 +9°C° 0 mm 2 mps 744 mmHg 74%
    05:00 +9°C° 0 mm 2 mps 743 mmHg 74%
    06:00 +9°C° 0.1 mm 2 mps 743 mmHg 76%
    07:00 +9°C° 0.1 mm 2 mps 744 mmHg 78%
    08:00 +9°C° 0.1 mm 2 mps 744 mmHg 80%
    09:00 +9°C° 0.1 mm 2 mps 744 mmHg 78%
    10:00 +10°C° 0.1 mm 2 mps 744 mmHg 77%
    11:00 +10°C° 0.1 mm 2 mps 744 mmHg 75%
    12:00 +12°C° 0 mm 2 mps 744 mmHg 71%
    13:00 +13°C° 0 mm 2 mps 744 mmHg 67%
    14:00 +14°C° 0 mm 2 mps 744 mmHg 63%
    15:00 +13°C° 0 mm 2 mps 744 mmHg 66%
    16:00 +12°C° 0 mm 2 mps 744 mmHg 69%
    17:00 +10°C° 0 mm 2 mps 744 mmHg 73%
    18:00 +9°C° 0 mm 2 mps 744 mmHg 74%
    19:00 +9°C° 0 mm 2 mps 744 mmHg 75%
    20:00 +8°C° 0 mm 2 mps 745 mmHg 76%
    21:00 +8°C° 0 mm 2 mps 745 mmHg 76%
    22:00 +8°C° 0 mm 2 mps 745 mmHg 77%
    23:00 +8°C° 0 mm 2 mps 745 mmHg 77%

    15 December, Friday

    Time Temperature Precipitation Wind Pressure Humidity
    00:00 +7°C° 0 mm 2 mps 745 mmHg 79%
    01:00 +7°C° 0 mm 2 mps 745 mmHg 80%
    02:00 +7°C° 0 mm 2 mps 745 mmHg 82%
    03:00 +7°C° 0 mm 2 mps 745 mmHg 83%
    04:00 +7°C° 0 mm 2 mps 745 mmHg 83%
    05:00 +7°C° 0 mm 2 mps 745 mmHg 84%
    06:00 +7°C° 0 mm 2 mps 745 mmHg 85%
    07:00 +7°C° 0 mm 3 mps 745 mmHg 86%
    08:00 +7°C° 0 mm 3 mps 745 mmHg 87%
    09:00 +8°C° 0 mm 3 mps 745 mmHg 81%
    10:00 +10°C° 0 mm 4 mps 745 mmHg 74%
    11:00 +11°C° 0 mm 4 mps 745 mmHg 67%
    12:00 +12°C° 0 mm 4 mps 745 mmHg 66%
    13:00 +12°C° 0 mm 5 mps 744 mmHg 64%
    14:00 +13°C° 0 mm 5 mps 743 mmHg 62%
    15:00 +12°C° 0 mm 5 mps 743 mmHg 66%
    16:00 +10°C° 0 mm 6 mps 743 mmHg 71%
    17:00 +10°C° 0 mm 6 mps 742 mmHg 76%
    18:00 +10°C° 0 mm 6 mps 742 mmHg 75%
    19:00 +10°C° 0 mm 7 mps 742 mmHg 74%
    20:00 +10°C° 0 mm 7 mps 742 mmHg 73%
    21:00 +10°C° 0 mm 7 mps 742 mmHg 75%
    22:00 +9°C° 0 mm 7 mps 742 mmHg 77%
    23:00 +9°C° 0 mm 8 mps 741 mmHg 80%

    16 December, Saturday

    Time Temperature Precipitation Wind Pressure Humidity
    00:00 +9°C° 0 mm 8 mps 741 mmHg 81%
    01:00 +9°C° 0 mm 8 mps 741 mmHg 83%
    02:00 +9°C° 0 mm 8 mps 741 mmHg 84%
    03:00 +9°C° 0 mm 8 mps 741 mmHg 84%
    04:00 +9°C° 0 mm 8 mps 740 mmHg 84%
    05:00 +9°C° 0 mm 8 mps 740 mmHg 83%
    06:00 +9°C° 0 mm 8 mps 740 mmHg 84%
    07:00 +9°C° 0 mm 7 mps 741 mmHg 85%
    08:00 +9°C° 0 mm 7 mps 741 mmHg 86%
    09:00 +10°C° 0 mm 7 mps 741 mmHg 81%
    10:00 +11°C° 0 mm 7 mps 741 mmHg 76%
    11:00 +14°C° 0 mm 7 mps 742 mmHg 71%
    12:00 +14°C° 0 mm 7 mps 742 mmHg 68%
    13:00 +14°C° 0 mm 6 mps 742 mmHg 66%
    14:00 +15°C° 0 mm 5 mps 742 mmHg 63%
    15:00 +13°C° 0 mm 4 mps 742 mmHg 65%
    16:00 +12°C° 0 mm 4 mps 742 mmHg 67%
    17:00 +11°C° 0 mm 3 mps 743 mmHg 69%
    18:00 +11°C° 0 mm 3 mps 743 mmHg 68%
    19:00 +10°C° 0 mm 2 mps 743 mmHg 67%
    20:00 +10°C° 0 mm 2 mps 744 mmHg 67%
    21:00 +10°C° 0.1 mm 2 mps 744 mmHg 67%
    22:00 +10°C° 0.1 mm 2 mps 744 mmHg 68%
    23:00 +9°C° 0.1 mm 2 mps 744 mmHg 69%

    17 December, Sunday

    Time Temperature Precipitation Wind Pressure Humidity
    00:00 +9°C° 0.7 mm 2 mps 744 mmHg 74%
    01:00 +8°C° 0.7 mm 2 mps 743 mmHg 78%
    02:00 +8°C° 0.7 mm 2 mps 743 mmHg 82%
    03:00 +8°C° 1.2 mm 3 mps 743 mmHg 85%
    04:00 +7°C° 1.2 mm 3 mps 742 mmHg 88%
    05:00 +7°C° 1.2 mm 3 mps 742 mmHg 90%
    06:00 +7°C° 1.8 mm 3 mps 742 mmHg 91%
    07:00 +7°C° 1.8 mm 3 mps 742 mmHg 93%
    08:00 +6°C° 1.8 mm 4 mps 742 mmHg 94%
    09:00 +6°C° 2.4 mm 4 mps 742 mmHg 93%
    10:00 +6°C° 2.4 mm 5 mps 742 mmHg 93%
    11:00 +5°C° 2.4 mm 6 mps 743 mmHg 92%
    12:00 +4°C° 0.3 mm 6 mps 743 mmHg 89%
    13:00 +4°C° 0.3 mm 7 mps 743 mmHg 87%
    14:00 +4°C° 0.3 mm 7 mps 743 mmHg 84%
    15:00 +4°C° 0.4 mm 7 mps 744 mmHg 83%
    16:00 +4°C° 0.4 mm 7 mps 744 mmHg 82%
    17:00 +3°C° 0.4 mm 7 mps 745 mmHg 82%
    18:00 +3°C° 0.6 mm 7 mps 746 mmHg 82%
    19:00 +3°C° 0.6 mm 7 mps 746 mmHg 82%
    20:00 +3°C° 0.6 mm 7 mps 747 mmHg 82%
    21:00 +2°C° 0.5 mm 7 mps 747 mmHg 82%
    22:00 +2°C° 0.5 mm 7 mps 747 mmHg 81%
    23:00 +2°C° 0.5 mm 7 mps 748 mmHg 81%
    Show more